User: anonymous   Login
Location: New York
(40.7127°N, 74.0060°W)
Time: 18:37:46
(UTC-04:00)
Language:

PCSat - Orbit

View from above orbital plane
View from above orbital plane
View from above satellite
View from above satellite

Ground track
Ground track

The orbit data is extracted from the following two-line orbital elements,

1 26931U 01043C   24109.45818077  .00000593  00000-0  25560-3 0  9993
2 26931  67.0487 125.8548 0006201 281.9370  78.1036 14.31178277177569
Epoch (UTC): 18 April 2024 10:59:46
Eccentricity: 0.0006201
inclination: 67.0487°
perigee height: 783 km
apogee height: 792 km
right ascension of ascending node: 125.8548°
argument of perigee: 281.9370°
revolutions per day: 14.31178277
mean anomaly at epoch: 78.1036°
orbit number at epoch: 17756

The dashed part of the orbit path shows where the satellite is in the earth's shadow,  

DLR